FLOCK 2E'-11 (41577 NORAD) Tracking and Keplerian Element Data

This shows tracking and keplerian element data for the satellite.

Feedback or suggestion? Click here.




ElementValue
Catalog41577
NameFLOCK 2E'-11
Epoch Orbit10151
Epoch Day70.48609598
Epoch Year2018
RAAN71.8929
Inclination51.6089
Eccentricity0.0001695
Argument of Perigee227.794
Mean Anonmoly132.4139
Mean Motion16.43071472
Decay Rate0.17416888
L11 41577U 98067KB 18070.48609598 .17416888 12466-4 85478-3 0 9990
L22 41577 51.6089 71.8929 0001695 227.7940 132.4139 16.43071472101519

Live tracking and technical data element details for FLOCK 2E'-11 (NORAD 41577). FLOCK 2E'-11 can be tracked NOW for your location showing map with azimuth and elevation plus other details from your city location.

Track the satellite on the map from your city or location and see movement details for azimuth, elevation, latitude, longitude, range, height, and movement on the map or in text.







IsCatalogInMostPopularTable: catalog: 41577, numindb: 128
Update: records affected: 1



GetName: 41577 FLOCK 2E'-11

Hit Count: updated at: Fri, 16 Nov 2018 03:26:21 GMT